Location: ?
(35.4214°N, 139.3011°E)
Time: 22:21:57
(UTC+00:00)

Cosmos 1953 Rocket - Pass Details

Date: 14 July 2020
Orbit: 605 x 634 km, 82.5° (Epoch: 10 August)

Event Time Altitude Azimuth Distance (km) Brightness Sun altitude
Rises 11:06:58 0° 193° (SSW) 2,844 6.7 -12.5°
Reaches altitude 10° 11:09:11 10° 197° (SSW) 1,945 5.9 -12.9°
Maximum altitude 11:13:26 61° 278° (W) 688 4.0 -13.5°
Drops below altitude 10° 11:17:44 10° 359° (N) 1,965 6.7 -14.2°
Sets 11:20:00 0° 3° (N) 2,876 7.6 -14.6°
